Starlink 31313

operational
NORAD ID: 59088 Int'l Des: 2024-041 Owner: SPXS Country: US Constellation: starlink
LEOCIRCULAR

Über Starlink 31313

Beschreibung wird geladen...

Live-Position

3D-Globus wird geladen...

Nächste Überflüge

Höhenverlauf

Altitude vs Time

uPlot chart will show altitude changes over time

Zweizeiliger Elementsatz

1 59088U 24041Q 25304.35953421 .00001365 00000-0 59120-4 0 9993
2 59088 43.0024 320.9634 0000746 287.6980 72.3790 15.27580739 94490
Epoch: 31. Okt. 2025 • Age: 23 hours

Aktueller Status

Höhe 483.8 km
Geschwindigkeit 7.62 km/s
Subsatellitenpunkt -7.71°S, 144.48°E
Startdatum 29. Feb. 2024
Alter 1.6 years
Typ internet

Technische Details

Klassifizierung Payload
Masse 730.00 kg
Trockenmasse 700.00 kg
Gesamtmasse 730.00 kg
Länge 0.30 m
Durchmesser 4.10 m
Spannweite 29.00 m
Form Box + pan
Hersteller SPXS
Bus-Typ Starlink V2M
Phasenstatus In Orbit
Besitzer/Staat SPXS/US

Große Konstellationen

Loading constellations...